User: anonymous   Login
Location: SAPM � Hemmingford
(45.0500°N, 73.5833°W)
Time: 19:04:23
(UTC-04:00)
Language:

Cosmos 1603 - Orbit

View from above orbital plane
View from above orbital plane
View from above satellite
View from above satellite

Ground track
Ground track

The orbit data is extracted from the following two-line orbital elements,

1 15333U 84106A   16176.89911235 -.00000058 +00000-0 -56742-5 0  9997
2 15333 071.0255 120.5124 0018541 025.6943 334.5096 14.14030268637511
Epoch (UTC): 24 June 2016 21:34:43
Eccentricity: 0.0018541
inclination: 71.0255°
perigee height: 832 km
apogee height: 859 km
right ascension of ascending node: 120.5124°
argument of perigee: 25.6943°
revolutions per day: 14.14030268
mean anomaly at epoch: 334.5096°
orbit number at epoch: 63751

The dashed part of the orbit path shows where the satellite is in the earth's shadow,  

DLR